When you browse on this site, cookies collect data to enhance your experience and personalize the content and advertising you see.
Visit our Privacy Policy to learn more. By continuing to use the site, you agree to this use of cookies and data.
  • Em Portugal
  • Lista de países
  • Para 7 dias
  • Temperatura da água
  • Mapa do tempo
  • Widgets de tempo
  • user-avatar
    Iniciar Sessão

    Previsão horária em Staroe Shaygovo

    Hoje, 21 Agosto, Quarta-feira

    Tempo Temperatura Precipitação Vento Pressão Humidade
    00:00 +18°C° 0 mm 1 m/s 754 mmHg 92%
    01:00 +18°C° 0 mm 1 m/s 754 mmHg 93%
    02:00 +18°C° 0 mm 1 m/s 754 mmHg 93%
    03:00 +18°C° 0 mm 1 m/s 754 mmHg 93%
    04:00 +18°C° 0 mm 1 m/s 754 mmHg 93%
    05:00 +18°C° 0 mm 1 m/s 755 mmHg 93%
    06:00 +18°C° 0 mm 1 m/s 755 mmHg 93%
    07:00 +20°C° 0 mm 1 m/s 755 mmHg 87%
    08:00 +20°C° 0 mm 2 m/s 755 mmHg 81%
    09:00 +23°C° 0 mm 2 m/s 755 mmHg 74%
    10:00 +24°C° 0 mm 2 m/s 755 mmHg 70%
    11:00 +25°C° 0 mm 2 m/s 755 mmHg 66%
    12:00 +26°C° 0 mm 3 m/s 755 mmHg 62%
    13:00 +27°C° 0 mm 3 m/s 755 mmHg 61%
    14:00 +27°C° 0 mm 2 m/s 755 mmHg 61%
    15:00 +27°C° 0 mm 2 m/s 755 mmHg 60%
    16:00 +26°C° 0 mm 2 m/s 754 mmHg 65%
    17:00 +26°C° 0 mm 2 m/s 754 mmHg 71%
    18:00 +25°C° 0 mm 2 m/s 754 mmHg 76%
    19:00 +24°C° 0 mm 2 m/s 754 mmHg 79%
    20:00 +22°C° 0 mm 1 m/s 754 mmHg 82%
    21:00 +21°C° 0 mm 1 m/s 754 mmHg 85%
    22:00 +20°C° 0 mm 1 m/s 754 mmHg 86%
    23:00 +20°C° 0 mm 1 m/s 754 mmHg 87%

    Amanhã, 22 Agosto, Quinta-feira

    Tempo Temperatura Precipitação Vento Pressão Humidade
    00:00 +18°C° 0 mm 0 m/s 754 mmHg 88%
    01:00 +17°C° 0 mm 0 m/s 754 mmHg 89%
    02:00 +17°C° 0 mm 0 m/s 754 mmHg 89%
    03:00 +17°C° 0 mm 0 m/s 754 mmHg 90%
    04:00 +17°C° 0 mm 0 m/s 754 mmHg 90%
    05:00 +17°C° 0 mm 0 m/s 754 mmHg 90%
    06:00 +17°C° 0 mm 0 m/s 753 mmHg 90%
    07:00 +19°C° 0 mm 0 m/s 753 mmHg 84%
    08:00 +23°C° 0 mm 1 m/s 754 mmHg 78%
    09:00 +24°C° 0 mm 1 m/s 754 mmHg 72%
    10:00 +25°C° 0 mm 1 m/s 753 mmHg 68%
    11:00 +26°C° 0 mm 1 m/s 753 mmHg 63%
    12:00 +27°C° 0 mm 1 m/s 753 mmHg 59%
    13:00 +27°C° 0 mm 1 m/s 753 mmHg 57%
    14:00 +28°C° 0 mm 1 m/s 753 mmHg 56%
    15:00 +28°C° 0 mm 1 m/s 752 mmHg 55%
    16:00 +27°C° 0 mm 1 m/s 752 mmHg 59%
    17:00 +27°C° 0 mm 1 m/s 752 mmHg 64%
    18:00 +26°C° 0 mm 1 m/s 752 mmHg 68%
    19:00 +24°C° 0 mm 1 m/s 752 mmHg 72%
    20:00 +23°C° 0 mm 1 m/s 752 mmHg 75%
    21:00 +22°C° 0 mm 1 m/s 752 mmHg 78%
    22:00 +21°C° 0 mm 1 m/s 752 mmHg 79%
    23:00 +21°C° 0 mm 1 m/s 752 mmHg 80%

    Depois de amanhã, 23 Agosto, Sexta-feira

    Tempo Temperatura Precipitação Vento Pressão Humidade
    00:00 +21°C° 0 mm 1 m/s 752 mmHg 82%
    01:00 +19°C° 0 mm 2 m/s 753 mmHg 86%
    02:00 +19°C° 0 mm 2 m/s 753 mmHg 91%
    03:00 +19°C° 0 mm 3 m/s 753 mmHg 95%
    04:00 +18°C° 0 mm 3 m/s 753 mmHg 93%
    05:00 +17°C° 0 mm 4 m/s 754 mmHg 92%
    06:00 +17°C° 0 mm 4 m/s 754 mmHg 90%
    07:00 +17°C° 0 mm 4 m/s 754 mmHg 86%
    08:00 +18°C° 0 mm 4 m/s 754 mmHg 83%
    09:00 +18°C° 0 mm 4 m/s 755 mmHg 79%
    10:00 +19°C° 0 mm 4 m/s 755 mmHg 74%
    11:00 +20°C° 0 mm 4 m/s 755 mmHg 68%
    12:00 +22°C° 0 mm 4 m/s 755 mmHg 62%
    13:00 +22°C° 0 mm 4 m/s 755 mmHg 61%
    14:00 +22°C° 0 mm 4 m/s 755 mmHg 59%
    15:00 +23°C° 0 mm 4 m/s 755 mmHg 57%
    16:00 +22°C° 0 mm 4 m/s 755 mmHg 61%
    17:00 +21°C° 0 mm 3 m/s 755 mmHg 66%
    18:00 +20°C° 0 mm 3 m/s 755 mmHg 70%
    19:00 +19°C° 0 mm 3 m/s 755 mmHg 72%
    20:00 +17°C° 0 mm 2 m/s 755 mmHg 74%
    21:00 +16°C° 0 mm 2 m/s 755 mmHg 76%
    22:00 +16°C° 0 mm 2 m/s 755 mmHg 78%
    23:00 +15°C° 0 mm 2 m/s 755 mmHg 79%

    24 Agosto, Sábado

    Tempo Temperatura Precipitação Vento Pressão Humidade
    00:00 +15°C° 0 mm 2 m/s 755 mmHg 81%
    01:00 +14°C° 0 mm 2 m/s 755 mmHg 83%
    02:00 +14°C° 0 mm 2 m/s 756 mmHg 84%
    03:00 +14°C° 0 mm 2 m/s 756 mmHg 86%
    04:00 +14°C° 0 mm 2 m/s 756 mmHg 87%
    05:00 +14°C° 0 mm 1 m/s 756 mmHg 87%
    06:00 +14°C° 0 mm 1 m/s 756 mmHg 87%
    07:00 +16°C° 0 mm 1 m/s 756 mmHg 81%
    08:00 +18°C° 0 mm 2 m/s 756 mmHg 74%
    09:00 +20°C° 0 mm 2 m/s 756 mmHg 67%
    10:00 +20°C° 0 mm 2 m/s 756 mmHg 62%
    11:00 +21°C° 0 mm 2 m/s 756 mmHg 57%
    12:00 +23°C° 0 mm 2 m/s 756 mmHg 53%
    13:00 +24°C° 0 mm 2 m/s 756 mmHg 52%
    14:00 +24°C° 0 mm 2 m/s 756 mmHg 51%
    15:00 +24°C° 0 mm 2 m/s 755 mmHg 50%
    16:00 +23°C° 0 mm 2 m/s 755 mmHg 55%
    17:00 +23°C° 0 mm 1 m/s 755 mmHg 61%
    18:00 +22°C° 0 mm 1 m/s 755 mmHg 66%
    19:00 +20°C° 0 mm 1 m/s 755 mmHg 69%
    20:00 +16°C° 0 mm 0 m/s 755 mmHg 72%
    21:00 +15°C° 0 mm 0 m/s 755 mmHg 75%
    22:00 +15°C° 0 mm 0 m/s 755 mmHg 77%
    23:00 +15°C° 0 mm 1 m/s 755 mmHg 78%

    25 Agosto, Domingo

    Tempo Temperatura Precipitação Vento Pressão Humidade
    00:00 +15°C° 0 mm 1 m/s 754 mmHg 79%
    01:00 +15°C° 0 mm 1 m/s 754 mmHg 80%
    02:00 +14°C° 0 mm 2 m/s 754 mmHg 81%
    03:00 +14°C° 0 mm 2 m/s 754 mmHg 82%
    04:00 +14°C° 0 mm 2 m/s 754 mmHg 83%
    05:00 +14°C° 0 mm 2 m/s 753 mmHg 84%
    06:00 +14°C° 0 mm 2 m/s 753 mmHg 84%
    07:00 +16°C° 0 mm 3 m/s 753 mmHg 79%
    08:00 +18°C° 0 mm 3 m/s 753 mmHg 73%
    09:00 +20°C° 0 mm 3 m/s 753 mmHg 68%
    10:00 +21°C° 0 mm 4 m/s 752 mmHg 65%
    11:00 +22°C° 0 mm 4 m/s 752 mmHg 61%
    12:00 +23°C° 0 mm 4 m/s 752 mmHg 58%
    13:00 +23°C° 0 mm 4 m/s 752 mmHg 57%
    14:00 +23°C° 0 mm 5 m/s 751 mmHg 57%
    15:00 +25°C° 0 mm 5 m/s 751 mmHg 56%
    16:00 +22°C° 0.3 mm 5 m/s 751 mmHg 64%
    17:00 +20°C° 0.3 mm 4 m/s 751 mmHg 73%
    18:00 +19°C° 0.3 mm 4 m/s 751 mmHg 82%
    19:00 +18°C° 0.3 mm 3 m/s 751 mmHg 86%
    20:00 +17°C° 0.3 mm 3 m/s 751 mmHg 90%
    21:00 +16°C° 0.3 mm 2 m/s 751 mmHg 94%
    22:00 +14°C° 0 mm 3 m/s 752 mmHg 93%
    23:00 +13°C° 0 mm 3 m/s 752 mmHg 93%

    26 Agosto, Segunda-feira

    Tempo Temperatura Precipitação Vento Pressão Humidade
    00:00 +13°C° 0 mm 3 m/s 752 mmHg 92%
    01:00 +12°C° 0 mm 3 m/s 753 mmHg 94%
    02:00 +11°C° 0 mm 3 m/s 753 mmHg 95%
    03:00 +11°C° 0 mm 3 m/s 753 mmHg 96%
    04:00 +10°C° 0 mm 3 m/s 754 mmHg 96%
    05:00 +10°C° 0 mm 3 m/s 754 mmHg 96%
    06:00 +10°C° 0 mm 3 m/s 754 mmHg 97%
    07:00 +11°C° 0 mm 4 m/s 755 mmHg 92%
    08:00 +12°C° 0 mm 4 m/s 755 mmHg 87%
    09:00 +13°C° 0 mm 4 m/s 756 mmHg 81%
    10:00 +13°C° 0 mm 4 m/s 756 mmHg 78%
    11:00 +13°C° 0 mm 4 m/s 756 mmHg 74%
    12:00 +14°C° 0 mm 4 m/s 757 mmHg 71%
    13:00 +15°C° 0 mm 4 m/s 757 mmHg 67%
    14:00 +17°C° 0 mm 3 m/s 757 mmHg 63%
    15:00 +18°C° 0 mm 3 m/s 757 mmHg 60%
    16:00 +17°C° 0 mm 3 m/s 757 mmHg 64%
    17:00 +17°C° 0 mm 2 m/s 757 mmHg 68%
    18:00 +16°C° 0 mm 2 m/s 757 mmHg 72%
    19:00 +15°C° 0 mm 2 m/s 757 mmHg 76%
    20:00 +13°C° 0 mm 2 m/s 757 mmHg 80%
    21:00 +12°C° 0 mm 2 m/s 758 mmHg 83%
    22:00 +10°C° 0 mm 2 m/s 758 mmHg 85%
    23:00 +9°C° 0 mm 2 m/s 758 mmHg 87%
    Mostrar mais